SCP
0 0 0 0 0 0 0 0 0 0 0 0 0 0 0 0 0 0 0 0 0 0 0 0 0 0 0 0 0 0 0 0 0 -0 -0 -0 0 -0 -0 0 0 0 0 0 0 0 0 0 0
0 0 0 0 0 0 0 0 0 0 0 0 0 0 0 0 0 0 0 0 0 0 0 0 0 0 0 0 0 0 0 0 0 0 0 0 0 0 -0 0 0 0 0 0 0 0 0 0 0
0 0 0 0 0 0 0 0 0 0 0 0 0 0 0 0 0 0 0 0 0 0 0 0 0 0 0 0 0 0 0 0 0 0 0 0 0 0 0 0 0 0 0 0 0 0 -0 -0 -0
0 0 0 0 0 0 0 0 0 0 0 0 0 0 0 0 0 0 0 1 1 0 0 0 0 0 0 0 0 0 0 0 0 0 0 0 0 0 0 0 0 0 0 0 0 0 0 0 0
0 0 0 0 0 0 0 0 0 0 0 0 0 0 0 0 0 0 1 1 1 1 1 0 0 1 0 1 0 0 0 0 0 0 0 0 0 0 0 0 0 0 0 0 0 0 0 0 0
0 0 0 0 0 0 0 0 0 0 0 0 0 0 0 0 0 0 1 1 1 1 1 1 0 1 1 1 0 0 0 0 0 0 0 0 0 0 0 0 0 0 0 0 0 0 0 0 0
0 0 0 0 0 0 0 0 0 0 0 0 0 0 0 0 0 0 0 1 1 1 1 1 1 1 1 1 1 0 0 0 0 0 0 0 0 0 0 0 0 0 0 0 0 0 0 0 0
0 0 0 0 0 0 0 0 0 0 0 0 0 0 0 0 0 0 0 0 1 1 1 1 1 1 1 1 1 1 1 0 0 0 0 0 0 0 0 0 0 0 0 0 0 0 0 0 0
0 0 0 0 0 0 0 0 0 0 0 0 0 0 0 0 0 0 0 0 1 1 1 1 1 1 1 1 1 0 0 0 0 0 0 0 0 0 0 0 0 0 0 0 0 0 0 0 0
0 0 0 0 0 0 0 0 0 0 0 0 0 0 0 0 0 0 0 0 0 0 1 1 1 1 1 2 1 1 1 0 0 0 0 0 0 0 0 0 0 0 0 0 0 0 0 0 0
0 0 0 0 0 0 0 0 0 0 0 0 0 0 0 0 0 0 0 0 0 0 0 1 1 1 1 2 1 1 1 1 0 0 0 0 0 0 0 0 0 0 0 0 0 0 0 0 0
0 0 0 0 0 0 0 0 0 0 0 0 0 0 0 0 0 0 0 0 0 0 0 0 0 1 1 1 2 1 1 1 1 0 0 0 0 0 0 0 0 0 0 0 0 0 0 0 0
0 0 0 0 -0 0 -0 -0 0 -0 0 0 0 0 0 0 0 0 0 0 0 0 0 0 0 1 1 1 1 2 1 1 1 0 0 0 0 0 0 0 0 0 0 0 0 0 0 0 0
0 0 0 0 0 0 0 0 0 0 0 0 0 0 0 0 0 -0 0 0 0 0 0 0 0 0 1 1 1 2 2 1 1 0 0 0 0 0 0 0 0 0 0 0 0 0 0 0 0
0 0 0 0 0 0 0 0 0 0 0 0 0 0 0 0 0 -0 -0 0 0 0 0 0 0 0 1 1 1 1 1 1 1 0 0 0 0 0 0 0 0 0 0 0 0 0 0 0 0
0 0 0 0 0 0 0 0 0 0 0 0 0 0 0 0 0 0 -0 -0 -0 0 0 0 0 0 0 1 1 1 1 1 1 0 0 0 0 0 0 0 0 0 0 0 0 0 0 0 0
0 0 0 0 0 0 0 0 0 0 0 0 0 0 0 0 0 0 0 -0 -0 -0 -0 0 0 0 0 0 1 1 0 0 0 1 1 0 0 0 0 0 0 0 0 0 0 0 0 0 0
0 0 0 0 0 0 0 0 0 0 0 0 0 0 0 0 0 0 0 0 0 -0 0 0 0 0 0 0 0 0 1 0 0 0 1 0 0 0 0 0 0 0 0 0 0 0 0 0 0
0 0 0 0 0 0 0 0 0 0 0 0 0 0 0 0 0 0 0 0 0 -0 -0 0 0 0 0 0 0 0 0 0 0 0 0 0 0 0 0 0 0 0 0 0 0 0 0 0 0
0 0 0 0 0 0 0 0 0 0 0 0 0 0 0 0 0 0 0 0 0 0 -0 0 0 0 0 0 0 1 0 1 0 0 0 0 0 0 0 0 0 0 0 0 0 0 0 0 0
0 0 0 0 0 0 0 0 0 0 0 0 0 0 0 0 0 0 0 0 0 0 0 -0 -0 0 0 0 0 0 0 0 0 0 0 0 0 0 0 0 0 0 0 0 0 0 0 0 0
0 0 0 0 0 0 0 0 0 0 0 0 0 0 0 0 0 0 0 0 0 0 0 0 0 0 0 0 0 0 0 0 0 0 0 0 0 0 0 0 0 0 0 0 0 0 0 0 0
0 0 0 0 0 0 0 0 0 0 0 -0 0 0 0 0 0 0 0 0 0 0 0 0 0 0 0 0 0 0 0 0 0 0 0 0 0 0 0 0 0 0 0 0 0 0 0 0 0
0 0 0 0 0 0 0 0 0 0 0 0 -0 0 0 0 0 0 0 0 0 0 0 0 0 0 0 0 0 0 0 0 0 0 0 0 0 0 0 0 0 0 0 0 0 0 0 0 0
0 0 0 0 0 0 0 0 0 0 0 -0 0 -0 -0 0 0 0 0 0 0 0 0 0 0 0 0 0 0 0 0 0 0 0 0 0 0 0 0 0 0 0 0 0 0 0 0 0 0
0 0 0 0 0 0 0 0 0 0 -0 -0 0 0 0 0 0 0 0 0 0 0 0 0 0 0 0 0 0 0 0 0 0 0 0 0 0 0 0 0 0 0 0 0 0 0 0 0 0
0 0 0 0 0 0 0 0 0 0 -0 0 0 0 0 0 0 0 0 0 0 0 0 0 0 0 0 0 0 0 0 0 0 0 0 0 0 0 0 0 0 0 0 0 0 0 0 0 0
0 0 0 0 0 0 0 0 0 0 0 0 -0 -0 -0 -0 0 0 0 0 0 0 0 0 0 0 0 0 0 0 0 0 0 0 0 0 0 0 0 0 0 0 0 0 0 0 0 0 0
0 0 0 0 0 0 0 0 0 0 0 -0 -0 -0 -0 -0 0 0 0 0 0 0 0 0 0 0 0 0 0 0 0 0 0 0 0 0 0 0 0 0 0 0 0 0 0 0 0 0 0
0 0 0 0 0 0 0 0 0 0 0 0 -0 -0 -0 -0 -0 0 0 0 0 0 0 0 0 0 0 0 0 0 0 0 0 0 0 0 0 0 0 0 0 0 0 0 0 0 0 0 0
Wind_Speed_500mb
9 7 14 10 6 6 5 15 7 16 10 3 23 8 12 12 8 9 6 28 25 36 59 64 60 57 55 53 51 46 42 39 37 35 35 36 37 36 35 34 30 29 30 26 21 35 29 29 28
3 9 14 7 9 7 10 10 20 28 16 32 34 19 9 15 12 7 25 22 19 29 49 61 62 59 55 52 52 49 45 42 38 36 36 36 39 40 38 42 40 38 40 38 21 32 25 29 36
2 15 12 8 8 11 10 13 28 8 18 27 12 25 15 7 23 16 20 23 24 32 39 56 63 59 57 54 51 50 48 45 41 38 37 37 37 36 39 40 38 30 32 27 28 35 30 26 38
5 6 4 7 16 12 12 6 8 15 16 7 7 19 17 15 9 24 30 28 28 33 38 45 61 61 58 55 52 52 50 49 44 40 37 35 34 34 34 37 38 38 40 37 37 35 36 32 39
10 4 3 5 9 9 8 18 22 15 13 22 37 14 31 35 18 22 34 32 33 36 38 40 56 61 60 58 56 55 52 52 48 42 39 35 33 33 31 41 40 37 38 37 40 34 43 40 37
6 5 3 8 9 8 5 38 13 17 17 38 30 31 15 11 17 23 37 36 34 36 40 41 51 60 61 61 60 58 56 55 52 47 42 38 35 35 34 39 38 30 39 37 36 36 42 41 38
9 7 7 5 7 7 3 31 10 14 26 11 51 9 15 11 13 23 33 40 39 42 41 45 51 60 62 63 62 61 60 58 54 50 45 41 39 38 38 37 34 32 36 38 37 37 37 39 40
5 6 3 9 7 8 9 32 10 13 10 49 19 10 14 37 35 21 32 38 43 44 43 48 53 57 63 65 64 63 60 60 57 52 46 43 42 40 40 36 31 28 33 36 33 33 34 36 38
2 4 4 7 4 10 17 12 16 29 29 23 40 30 48 41 39 22 19 36 42 46 50 54 53 56 64 68 68 64 62 62 58 54 48 45 45 42 41 38 32 25 28 33 31 32 32 32 35
7 5 12 7 4 8 17 20 31 23 34 26 65 65 53 59 54 51 36 22 33 47 52 53 57 54 64 70 70 68 67 65 63 61 55 52 49 47 45 40 35 28 25 25 29 29 32 32 34
10 8 3 13 26 32 24 37 21 14 23 27 48 72 80 79 76 63 51 40 28 26 53 57 61 56 61 67 70 71 70 69 68 66 61 56 54 51 49 45 42 39 32 28 31 32 33 33 33
11 15 14 20 26 24 18 35 26 42 58 67 63 68 77 85 81 81 74 58 44 27 37 53 58 64 68 70 72 76 76 74 74 70 66 63 61 59 55 53 48 47 40 33 27 31 32 34 34
8 12 19 33 56 47 58 49 35 65 84 74 75 72 76 81 79 70 76 75 64 44 23 21 53 63 70 76 74 77 80 80 78 76 72 68 66 66 58 55 53 51 46 39 30 33 36 37 37
11 30 43 47 59 43 44 44 16 59 49 55 56 63 65 62 64 64 63 71 72 57 38 16 30 51 63 71 74 79 83 83 82 80 78 74 70 69 66 60 58 55 51 44 36 34 37 39 39
30 21 16 24 15 12 16 12 25 69 59 53 61 61 56 54 55 53 48 51 57 61 49 37 18 30 42 56 70 78 84 88 87 84 82 79 75 72 67 67 64 60 55 48 40 36 39 43 44
10 7 12 7 16 14 9 24 14 40 53 64 57 66 68 59 53 55 53 53 75 61 50 47 37 18 25 40 46 66 81 92 89 88 85 82 77 72 70 71 69 62 58 51 46 42 43 46 48
12 11 17 16 7 12 17 28 5 13 49 72 81 72 73 63 66 77 68 57 54 80 67 42 47 30 25 26 35 42 45 51 72 90 86 80 76 71 71 72 71 64 62 59 53 46 43 44 47
19 25 27 32 10 16 31 54 47 65 61 64 72 73 65 63 65 63 66 60 47 70 86 69 58 41 38 30 25 28 33 32 39 89 85 81 72 67 67 71 72 67 66 63 60 51 44 44 42
21 32 42 39 35 39 34 43 41 47 49 48 62 60 56 60 65 66 62 55 51 52 60 70 75 81 49 40 36 31 35 31 30 50 84 77 74 63 73 77 77 72 73 66 60 56 51 47 44
22 40 45 36 19 21 35 44 49 44 13 26 38 34 33 36 38 51 59 46 44 40 55 64 60 64 74 52 48 38 33 29 30 32 59 94 88 83 82 82 84 81 77 71 66 61 57 53 47
13 21 31 37 35 36 41 28 15 8 7 37 46 48 51 51 51 46 38 47 39 44 42 38 44 45 42 61 53 52 43 39 33 34 41 75 89 78 79 83 89 89 82 79 70 66 63 59 53
24 15 36 43 30 14 12 13 8 20 21 33 50 56 57 62 64 57 40 30 37 39 47 43 40 47 51 40 43 48 50 46 42 38 36 52 71 82 94 81 91 96 88 87 77 70 64 61 62
20 33 44 41 28 21 12 6 6 12 28 44 43 70 77 76 70 70 49 31 31 40 48 34 42 47 41 43 39 45 47 45 41 44 45 51 41 56 58 74 88 96 88 92 84 74 69 64 68
20 19 31 4 3 3 8 4 3 10 24 39 47 62 67 74 79 67 46 39 31 31 41 41 38 30 30 43 43 40 44 42 49 44 44 55 64 68 75 78 76 87 92 110 80 80 69 70 70
32 14 9 12 9 9 7 8 7 5 21 25 39 58 64 70 66 63 48 35 27 20 27 33 36 28 27 28 29 35 46 46 49 44 48 56 72 73 72 60 72 78 59 46 63 73 68 73 79
15 6 1 12 8 21 8 5 5 6 38 45 50 57 59 68 65 42 31 12 4 18 25 32 31 24 26 26 29 38 41 49 48 54 44 46 80 76 65 60 46 46 52 66 65 68 76 66 75
17 15 12 10 9 7 7 7 9 36 39 46 51 55 56 63 58 35 23 16 14 9 18 19 21 20 22 30 34 38 42 50 46 50 45 47 39 32 50 50 52 49 48 48 53 59 66 67 76
10 10 11 7 12 12 11 8 9 40 47 39 40 54 57 61 47 33 23 17 18 14 7 5 8 12 19 22 24 28 32 35 36 41 51 49 39 30 29 29 33 42 45 53 53 60 62 71 75
11 10 6 4 3 6 9 9 11 39 37 37 32 49 55 56 43 32 23 20 18 16 13 8 2 6 12 18 24 28 32 35 34 32 31 41 20 17 24 34 41 50 55 53 52 52 57 66 64
8 14 5 5 10 7 5 8 28 34 29 42 44 48 51 45 35 30 26 19 18 16 11 11 6 7 12 17 22 25 34 38 36 35 40 34 32 31 42 43 41 45 46 47 45 42 42 46 50
Wind_Direction_500mb
276 216 167 160 86 78 203 248 253 276 313 258 288 240 222 236 173 214 161 158 168 186 182 183 185 184 185 184 184 184 184 180 176 172 169 167 168 171 169 162 150 140 141 151 163 168 158 172 167
284 160 155 137 114 143 239 237 232 229 246 303 309 267 250 241 198 193 168 179 176 187 185 188 187 188 188 187 187 185 186 184 183 176 173 167 164 161 162 160 162 168 157 166 159 153 158 157 164
205 167 158 148 156 193 220 223 237 343 280 278 289 271 254 233 211 193 198 185 181 188 193 196 193 192 191 190 190 189 187 189 187 185 180 174 172 171 175 175 178 188 163 176 160 156 156 162 149
160 153 103 142 206 242 209 264 320 338 319 300 307 294 280 251 258 216 198 205 196 189 196 199 199 196 195 194 192 193 191 191 193 189 188 185 182 178 180 184 183 183 167 164 162 168 163 158 153
162 110 76 262 241 272 277 343 341 324 307 315 329 275 294 294 247 211 206 206 206 194 195 198 202 202 200 197 195 195 196 193 194 193 190 191 189 183 178 171 184 178 173 167 167 164 171 164 165
99 88 117 226 229 245 42 352 348 11 350 324 354 320 283 260 229 201 214 211 210 208 202 198 202 204 205 201 198 196 200 196 194 195 194 196 195 187 183 180 190 206 175 179 173 170 167 169 174
104 98 221 251 243 264 90 2 45 338 326 313 329 270 306 205 336 207 224 227 213 204 204 202 201 205 208 206 202 199 200 199 197 197 197 199 198 192 193 192 194 207 182 184 185 178 174 174 183
80 94 246 238 214 240 346 350 333 1 302 316 338 335 328 334 340 292 240 239 226 210 206 206 203 206 209 210 207 203 203 201 201 201 201 199 199 196 199 198 206 209 192 181 180 173 175 178 182
112 76 251 268 236 298 322 359 309 314 279 298 306 282 302 312 332 325 251 237 238 229 216 205 207 207 210 211 210 207 205 204 204 203 205 203 198 198 201 203 206 195 196 189 182 180 181 180 183
62 137 226 214 232 265 297 296 304 303 299 297 304 293 288 287 303 316 331 315 247 232 226 216 209 210 211 212 210 208 206 205 205 205 204 204 200 199 205 208 210 203 205 199 189 189 185 188 190
334 228 314 266 302 313 305 301 295 263 276 273 283 291 290 292 294 297 299 307 306 254 229 230 219 213 214 216 212 210 207 206 207 207 207 203 202 201 202 207 212 210 206 204 201 202 194 195 198
334 278 291 298 311 321 295 285 279 282 271 274 280 287 290 292 292 289 287 286 294 277 234 231 232 226 219 218 217 214 209 209 209 208 208 204 202 203 203 206 212 213 212 211 215 215 209 203 204
223 292 303 297 297 293 290 278 278 274 276 280 280 283 287 290 286 285 284 283 284 281 249 247 234 230 230 222 219 218 215 212 212 210 209 208 207 208 207 210 214 217 219 219 222 220 218 213 210
302 300 293 289 283 280 268 271 281 272 286 291 288 285 289 289 288 290 289 283 276 275 273 258 248 230 229 228 223 220 220 217 216 214 212 210 212 212 212 214 216 221 222 224 226 230 226 221 218
293 294 291 272 268 255 301 270 223 267 282 281 288 293 293 290 287 281 280 292 283 268 276 261 267 232 228 223 227 227 226 222 218 217 214 212 213 214 213 217 220 221 224 225 226 232 229 225 223
323 314 328 313 297 269 137 263 265 272 275 279 283 286 285 283 287 289 287 282 268 268 273 271 258 261 243 230 223 227 233 222 221 220 216 214 216 217 214 219 222 225 225 225 227 232 231 230 229
12 294 288 311 267 270 200 288 195 278 286 283 282 276 275 275 279 280 283 282 275 253 259 262 260 262 260 245 226 228 231 242 234 219 218 219 218 222 222 223 223 226 226 226 229 230 233 233 233
292 297 283 285 279 268 275 275 280 281 275 272 273 274 272 275 276 281 281 283 280 250 248 255 254 255 255 249 236 235 242 241 241 204 221 214 218 225 227 230 231 227 226 226 227 229 231 233 234
279 278 283 280 283 284 283 276 287 286 282 287 279 274 275 278 287 289 283 286 278 236 235 256 256 252 257 253 239 236 241 243 239 236 232 243 224 230 233 232 232 229 226 226 229 231 228 230 227
262 283 289 288 264 291 288 284 288 291 328 20 14 3 345 325 312 295 286 276 272 278 221 227 249 258 246 244 241 241 245 250 264 260 243 233 226 226 225 234 233 232 226 226 226 231 233 232 227
249 268 289 283 307 295 275 280 279 87 61 8 359 349 342 331 325 317 303 273 251 254 216 212 228 239 240 236 233 236 240 246 250 242 251 225 226 226 222 229 232 231 226 227 227 230 233 235 232
309 254 298 295 310 301 40 296 36 346 348 348 344 342 333 327 326 319 306 272 261 243 242 227 227 244 236 234 227 226 234 242 251 257 244 227 234 234 233 222 233 228 226 226 228 234 233 236 236
270 312 291 287 283 289 318 243 14 9 348 340 337 335 331 329 324 316 305 280 258 255 245 250 224 231 233 231 231 227 233 239 245 249 251 236 241 240 247 243 240 239 226 228 226 234 232 239 241
315 306 316 21 139 324 262 157 30 17 336 325 328 329 328 328 328 317 298 289 280 246 244 244 224 232 237 227 232 230 239 245 244 241 252 243 231 230 235 241 241 248 234 237 226 229 235 247 246
351 341 350 358 7 239 284 294 226 18 357 332 325 326 328 331 336 326 306 291 292 239 220 225 215 222 226 225 233 241 242 244 247 244 242 250 241 244 238 240 242 245 243 241 250 238 238 246 245
338 29 289 311 317 298 337 276 267 309 355 338 332 330 334 341 348 344 353 351 175 182 188 199 208 224 240 249 256 249 249 246 252 240 250 268 235 246 244 235 230 242 242 247 255 249 240 255 254
312 1 289 256 234 289 286 288 324 341 349 345 340 341 340 343 349 4 27 53 70 124 173 197 211 225 246 254 252 250 248 246 249 239 259 245 228 228 248 245 242 239 247 251 254 253 252 261 269
151 303 356 335 350 313 308 315 291 338 337 342 343 342 342 347 353 5 31 38 39 43 107 213 220 230 249 244 235 228 223 231 241 241 247 246 244 242 230 256 243 254 244 253 263 262 268 267 268
352 355 337 232 319 299 306 309 328 343 336 335 337 342 342 351 359 1 27 23 18 21 28 13 324 255 236 227 226 219 213 223 226 208 192 185 195 200 218 244 241 248 250 264 267 266 271 256 250
143 3 298 303 311 258 248 290 9 335 335 336 341 347 354 5 8 21 32 28 10 8 24 359 336 248 222 218 222 212 210 207 203 223 219 214 197 189 257 237 249 252 266 261 261 267 263 263 262
Wind_Speed_850mb
9 7 14 10 6 6 5 15 7 16 10 3 23 8 12 12 8 9 6 28 25 36 59 64 60 57 55 53 51 46 42 39 37 35 35 36 37 36 35 34 30 29 30 26 21 35 29 29 28
3 9 14 7 9 7 10 10 20 28 16 32 34 19 9 15 12 7 25 22 19 29 49 61 62 59 55 52 52 49 45 42 38 36 36 36 39 40 38 42 40 38 40 38 21 32 25 29 36
2 15 12 8 8 11 10 13 28 8 18 27 12 25 15 7 23 16 20 23 24 32 39 56 63 59 57 54 51 50 48 45 41 38 37 37 37 36 39 40 38 30 32 27 28 35 30 26 38
5 6 4 7 16 12 12 6 8 15 16 7 7 19 17 15 9 24 30 28 28 33 38 45 61 61 58 55 52 52 50 49 44 40 37 35 34 34 34 37 38 38 40 37 37 35 36 32 39
10 4 3 5 9 9 8 18 22 15 13 22 37 14 31 35 18 22 34 32 33 36 38 40 56 61 60 58 56 55 52 52 48 42 39 35 33 33 31 41 40 37 38 37 40 34 43 40 37
6 5 3 8 9 8 5 38 13 17 17 38 30 31 15 11 17 23 37 36 34 36 40 41 51 60 61 61 60 58 56 55 52 47 42 38 35 35 34 39 38 30 39 37 36 36 42 41 38
9 7 7 5 7 7 3 31 10 14 26 11 51 9 15 11 13 23 33 40 39 42 41 45 51 60 62 63 62 61 60 58 54 50 45 41 39 38 38 37 34 32 36 38 37 37 37 39 40
5 6 3 9 7 8 9 32 10 13 10 49 19 10 14 37 35 21 32 38 43 44 43 48 53 57 63 65 64 63 60 60 57 52 46 43 42 40 40 36 31 28 33 36 33 33 34 36 38
2 4 4 7 4 10 17 12 16 29 29 23 40 30 48 41 39 22 19 36 42 46 50 54 53 56 64 68 68 64 62 62 58 54 48 45 45 42 41 38 32 25 28 33 31 32 32 32 35
7 5 12 7 4 8 17 20 31 23 34 26 65 65 53 59 54 51 36 22 33 47 52 53 57 54 64 70 70 68 67 65 63 61 55 52 49 47 45 40 35 28 25 25 29 29 32 32 34
10 8 3 13 26 32 24 37 21 14 23 27 48 72 80 79 76 63 51 40 28 26 53 57 61 56 61 67 70 71 70 69 68 66 61 56 54 51 49 45 42 39 32 28 31 32 33 33 33
11 15 14 20 26 24 18 35 26 42 58 67 63 68 77 85 81 81 74 58 44 27 37 53 58 64 68 70 72 76 76 74 74 70 66 63 61 59 55 53 48 47 40 33 27 31 32 34 34
8 12 19 33 56 47 58 49 35 65 84 74 75 72 76 81 79 70 76 75 64 44 23 21 53 63 70 76 74 77 80 80 78 76 72 68 66 66 58 55 53 51 46 39 30 33 36 37 37
11 30 43 47 59 43 44 44 16 59 49 55 56 63 65 62 64 64 63 71 72 57 38 16 30 51 63 71 74 79 83 83 82 80 78 74 70 69 66 60 58 55 51 44 36 34 37 39 39
30 21 16 24 15 12 16 12 25 69 59 53 61 61 56 54 55 53 48 51 57 61 49 37 18 30 42 56 70 78 84 88 87 84 82 79 75 72 67 67 64 60 55 48 40 36 39 43 44
10 7 12 7 16 14 9 24 14 40 53 64 57 66 68 59 53 55 53 53 75 61 50 47 37 18 25 40 46 66 81 92 89 88 85 82 77 72 70 71 69 62 58 51 46 42 43 46 48
12 11 17 16 7 12 17 28 5 13 49 72 81 72 73 63 66 77 68 57 54 80 67 42 47 30 25 26 35 42 45 51 72 90 86 80 76 71 71 72 71 64 62 59 53 46 43 44 47
19 25 27 32 10 16 31 54 47 65 61 64 72 73 65 63 65 63 66 60 47 70 86 69 58 41 38 30 25 28 33 32 39 89 85 81 72 67 67 71 72 67 66 63 60 51 44 44 42
21 32 42 39 35 39 34 43 41 47 49 48 62 60 56 60 65 66 62 55 51 52 60 70 75 81 49 40 36 31 35 31 30 50 84 77 74 63 73 77 77 72 73 66 60 56 51 47 44
22 40 45 36 19 21 35 44 49 44 13 26 38 34 33 36 38 51 59 46 44 40 55 64 60 64 74 52 48 38 33 29 30 32 59 94 88 83 82 82 84 81 77 71 66 61 57 53 47
13 21 31 37 35 36 41 28 15 8 7 37 46 48 51 51 51 46 38 47 39 44 42 38 44 45 42 61 53 52 43 39 33 34 41 75 89 78 79 83 89 89 82 79 70 66 63 59 53
24 15 36 43 30 14 12 13 8 20 21 33 50 56 57 62 64 57 40 30 37 39 47 43 40 47 51 40 43 48 50 46 42 38 36 52 71 82 94 81 91 96 88 87 77 70 64 61 62
20 33 44 41 28 21 12 6 6 12 28 44 43 70 77 76 70 70 49 31 31 40 48 34 42 47 41 43 39 45 47 45 41 44 45 51 41 56 58 74 88 96 88 92 84 74 69 64 68
20 19 31 4 3 3 8 4 3 10 24 39 47 62 67 74 79 67 46 39 31 31 41 41 38 30 30 43 43 40 44 42 49 44 44 55 64 68 75 78 76 87 92 110 80 80 69 70 70
32 14 9 12 9 9 7 8 7 5 21 25 39 58 64 70 66 63 48 35 27 20 27 33 36 28 27 28 29 35 46 46 49 44 48 56 72 73 72 60 72 78 59 46 63 73 68 73 79
15 6 1 12 8 21 8 5 5 6 38 45 50 57 59 68 65 42 31 12 4 18 25 32 31 24 26 26 29 38 41 49 48 54 44 46 80 76 65 60 46 46 52 66 65 68 76 66 75
17 15 12 10 9 7 7 7 9 36 39 46 51 55 56 63 58 35 23 16 14 9 18 19 21 20 22 30 34 38 42 50 46 50 45 47 39 32 50 50 52 49 48 48 53 59 66 67 76
10 10 11 7 12 12 11 8 9 40 47 39 40 54 57 61 47 33 23 17 18 14 7 5 8 12 19 22 24 28 32 35 36 41 51 49 39 30 29 29 33 42 45 53 53 60 62 71 75
11 10 6 4 3 6 9 9 11 39 37 37 32 49 55 56 43 32 23 20 18 16 13 8 2 6 12 18 24 28 32 35 34 32 31 41 20 17 24 34 41 50 55 53 52 52 57 66 64
8 14 5 5 10 7 5 8 28 34 29 42 44 48 51 45 35 30 26 19 18 16 11 11 6 7 12 17 22 25 34 38 36 35 40 34 32 31 42 43 41 45 46 47 45 42 42 46 50
Wind_Direction_850mb
276 216 167 160 86 78 203 248 253 276 313 258 288 240 222 236 173 214 161 158 168 186 182 183 185 184 185 184 184 184 184 180 176 172 169 167 168 171 169 162 150 140 141 151 163 168 158 172 167
284 160 155 137 114 143 239 237 232 229 246 303 309 267 250 241 198 193 168 179 176 187 185 188 187 188 188 187 187 185 186 184 183 176 173 167 164 161 162 160 162 168 157 166 159 153 158 157 164
205 167 158 148 156 193 220 223 237 343 280 278 289 271 254 233 211 193 198 185 181 188 193 196 193 192 191 190 190 189 187 189 187 185 180 174 172 171 175 175 178 188 163 176 160 156 156 162 149
160 153 103 142 206 242 209 264 320 338 319 300 307 294 280 251 258 216 198 205 196 189 196 199 199 196 195 194 192 193 191 191 193 189 188 185 182 178 180 184 183 183 167 164 162 168 163 158 153
162 110 76 262 241 272 277 343 341 324 307 315 329 275 294 294 247 211 206 206 206 194 195 198 202 202 200 197 195 195 196 193 194 193 190 191 189 183 178 171 184 178 173 167 167 164 171 164 165
99 88 117 226 229 245 42 352 348 11 350 324 354 320 283 260 229 201 214 211 210 208 202 198 202 204 205 201 198 196 200 196 194 195 194 196 195 187 183 180 190 206 175 179 173 170 167 169 174
104 98 221 251 243 264 90 2 45 338 326 313 329 270 306 205 336 207 224 227 213 204 204 202 201 205 208 206 202 199 200 199 197 197 197 199 198 192 193 192 194 207 182 184 185 178 174 174 183
80 94 246 238 214 240 346 350 333 1 302 316 338 335 328 334 340 292 240 239 226 210 206 206 203 206 209 210 207 203 203 201 201 201 201 199 199 196 199 198 206 209 192 181 180 173 175 178 182
112 76 251 268 236 298 322 359 309 314 279 298 306 282 302 312 332 325 251 237 238 229 216 205 207 207 210 211 210 207 205 204 204 203 205 203 198 198 201 203 206 195 196 189 182 180 181 180 183
62 137 226 214 232 265 297 296 304 303 299 297 304 293 288 287 303 316 331 315 247 232 226 216 209 210 211 212 210 208 206 205 205 205 204 204 200 199 205 208 210 203 205 199 189 189 185 188 190
334 228 314 266 302 313 305 301 295 263 276 273 283 291 290 292 294 297 299 307 306 254 229 230 219 213 214 216 212 210 207 206 207 207 207 203 202 201 202 207 212 210 206 204 201 202 194 195 198
334 278 291 298 311 321 295 285 279 282 271 274 280 287 290 292 292 289 287 286 294 277 234 231 232 226 219 218 217 214 209 209 209 208 208 204 202 203 203 206 212 213 212 211 215 215 209 203 204
223 292 303 297 297 293 290 278 278 274 276 280 280 283 287 290 286 285 284 283 284 281 249 247 234 230 230 222 219 218 215 212 212 210 209 208 207 208 207 210 214 217 219 219 222 220 218 213 210
302 300 293 289 283 280 268 271 281 272 286 291 288 285 289 289 288 290 289 283 276 275 273 258 248 230 229 228 223 220 220 217 216 214 212 210 212 212 212 214 216 221 222 224 226 230 226 221 218
293 294 291 272 268 255 301 270 223 267 282 281 288 293 293 290 287 281 280 292 283 268 276 261 267 232 228 223 227 227 226 222 218 217 214 212 213 214 213 217 220 221 224 225 226 232 229 225 223
323 314 328 313 297 269 137 263 265 272 275 279 283 286 285 283 287 289 287 282 268 268 273 271 258 261 243 230 223 227 233 222 221 220 216 214 216 217 214 219 222 225 225 225 227 232 231 230 229
12 294 288 311 267 270 200 288 195 278 286 283 282 276 275 275 279 280 283 282 275 253 259 262 260 262 260 245 226 228 231 242 234 219 218 219 218 222 222 223 223 226 226 226 229 230 233 233 233
292 297 283 285 279 268 275 275 280 281 275 272 273 274 272 275 276 281 281 283 280 250 248 255 254 255 255 249 236 235 242 241 241 204 221 214 218 225 227 230 231 227 226 226 227 229 231 233 234
279 278 283 280 283 284 283 276 287 286 282 287 279 274 275 278 287 289 283 286 278 236 235 256 256 252 257 253 239 236 241 243 239 236 232 243 224 230 233 232 232 229 226 226 229 231 228 230 227
262 283 289 288 264 291 288 284 288 291 328 20 14 3 345 325 312 295 286 276 272 278 221 227 249 258 246 244 241 241 245 250 264 260 243 233 226 226 225 234 233 232 226 226 226 231 233 232 227
249 268 289 283 307 295 275 280 279 87 61 8 359 349 342 331 325 317 303 273 251 254 216 212 228 239 240 236 233 236 240 246 250 242 251 225 226 226 222 229 232 231 226 227 227 230 233 235 232
309 254 298 295 310 301 40 296 36 346 348 348 344 342 333 327 326 319 306 272 261 243 242 227 227 244 236 234 227 226 234 242 251 257 244 227 234 234 233 222 233 228 226 226 228 234 233 236 236
270 312 291 287 283 289 318 243 14 9 348 340 337 335 331 329 324 316 305 280 258 255 245 250 224 231 233 231 231 227 233 239 245 249 251 236 241 240 247 243 240 239 226 228 226 234 232 239 241
315 306 316 21 139 324 262 157 30 17 336 325 328 329 328 328 328 317 298 289 280 246 244 244 224 232 237 227 232 230 239 245 244 241 252 243 231 230 235 241 241 248 234 237 226 229 235 247 246
351 341 350 358 7 239 284 294 226 18 357 332 325 326 328 331 336 326 306 291 292 239 220 225 215 222 226 225 233 241 242 244 247 244 242 250 241 244 238 240 242 245 243 241 250 238 238 246 245
338 29 289 311 317 298 337 276 267 309 355 338 332 330 334 341 348 344 353 351 175 182 188 199 208 224 240 249 256 249 249 246 252 240 250 268 235 246 244 235 230 242 242 247 255 249 240 255 254
312 1 289 256 234 289 286 288 324 341 349 345 340 341 340 343 349 4 27 53 70 124 173 197 211 225 246 254 252 250 248 246 249 239 259 245 228 228 248 245 242 239 247 251 254 253 252 261 269
151 303 356 335 350 313 308 315 291 338 337 342 343 342 342 347 353 5 31 38 39 43 107 213 220 230 249 244 235 228 223 231 241 241 247 246 244 242 230 256 243 254 244 253 263 262 268 267 268
352 355 337 232 319 299 306 309 328 343 336 335 337 342 342 351 359 1 27 23 18 21 28 13 324 255 236 227 226 219 213 223 226 208 192 185 195 200 218 244 241 248 250 264 267 266 271 256 250
143 3 298 303 311 258 248 290 9 335 335 336 341 347 354 5 8 21 32 28 10 8 24 359 336 248 222 218 222 212 210 207 203 223 219 214 197 189 257 237 249 252 266 261 261 267 263 263 262